Location: Montreal
(45.5087°N, 73.5540°W)
Time: 04:13:52
(UTC-05:00)

Tiangong 2 - Visible Passes

Search period start: 12 December 2018 00:00
Search period end: 22 December 2018 00:00
Orbit: 382 x 391 km, 42.8° (Epoch: 12 December)

Date Brightness Start Highest point End Pass type
(mag) Time Alt. Az. Time Alt. Az. Time Alt. Az.
19 Dec 3.6 18:06:12 10° S 18:07:15 13° SSE 18:07:15 13° SSE visible
20 Dec 3.8 18:42:37 10° SW 18:43:33 16° SSW 18:43:33 16° SSW visible
21 Dec 2.9 17:44:18 10° SSW 17:46:44 21° SSE 17:47:32 19° SE visible
